GW0269 Weather Reports


Display with metric or nautical units.
time (UTC)temp
F
wind
direction
speed
MPH
gust
MPH
rain 1hr
in
rain 24hr
in
rain mn
in
humidity
%
barometer
mb
20260507184555 56 166 2.0 7.0 0.00 0.90 0.90 92 1001.6
20260507183103 56 146 2.0 5.0 0.00 0.90 0.90 92 1001.5
20260507181551 55 0 1.0 6.0 0.00 0.90 0.90 92 1001.8
20260507180052 54 200 2.0 7.0 0.00 0.90 0.90 92 1002.2
20260507174604 53 187 1.0 10.0 0.03 0.90 0.90 92 1002.3
20260507173057 54 221 4.0 8.0 0.03 0.90 0.90 92 1002.3
20260507171608 54 136 1.0 7.0 0.08 0.90 0.90 92 1001.5
20260507170058 53 148 2.0 5.0 0.08 0.89 0.89 92 1002.0
20260507164603 53 171 1.0 4.0 0.06 0.87 0.87 91 1002.2
20260507163055 53 113 2.0 8.0 0.07 0.86 0.86 91 1002.0
20260507161600 53 145 3.0 7.0 0.07 0.81 0.81 91 1003.0
20260507160101 54 109 2.0 6.0 0.09 0.81 0.81 91 1002.6
20260507154554 54 159 1.0 5.0 0.13 0.81 0.81 91 1002.8
20260507153058 54 127 1.0 4.0 0.14 0.78 0.78 91 1003.0
20260507151557 53 188 1.0 3.0 0.28 0.74 0.74 91 1003.6
20260507150057 53 213 1.0 3.0 0.29 0.71 0.71 91 1003.7
20260507144556 53 146 1.0 6.0 0.33 0.67 0.67 91 1003.9
20260507143057 53 0 0.0 11.0 0.29 0.63 0.63 91 1004.2
20260507141557 53 202 1.0 3.0 0.14 0.46 0.46 91 1004.6
20260507140052 53 204 4.0 11.0 0.09 0.41 0.41 91 1003.8
20260507134556 53 209 3.0 12.0 0.02 0.34 0.34 91 1004.7
20260507133058 53 210 3.0 12.0 0.01 0.33 0.33 91 1004.2
20260507131600 53 240 7.0 16.0 0.00 0.32 0.32 91 1004.4
20260507130100 53 209 4.0 10.0 0.00 0.32 0.32 91 1004.5
20260507124554 52 201 6.0 12.0 0.00 0.32 0.32 91 1004.5
20260507123105 53 154 3.0 11.0 0.00 0.32 0.32 91 1004.6
20260507121555 53 148 4.0 14.0 0.00 0.32 0.32 91 1005.2
20260507120058 53 161 7.0 15.0 0.00 0.32 0.32 90 1005.2
20260507114556 54 130 5.0 11.0 0.00 0.32 0.32 91 1005.1
20260507113054 53 144 4.0 11.0 0.00 0.32 0.32 91 1005.2
20260507111551 53 216 4.0 16.0 0.00 0.32 0.32 91 1005.7
20260507110106 53 194 4.0 16.0 0.00 0.32 0.32 90 1006.1
20260507104549 53 169 5.0 12.0 0.00 0.32 0.32 90 1005.8
20260507103056 53 169 5.0 12.0 0.00 0.32 0.32 90 1006.1
20260507101550 53 202 5.0 17.0 0.00 0.32 0.32 90 1005.9
20260507100053 53 187 6.0 17.0 0.00 0.32 0.32 90 1006.2
20260507094608 53 167 7.0 23.0 0.01 0.32 0.32 90 1005.8
20260507093059 53 203 6.0 17.0 0.01 0.32 0.32 90 1006.2
20260507091620 53 150 9.0 19.0 0.01 0.32 0.32 90 1006.0
20260507090105 53 139 6.0 14.0 0.02 0.31 0.31 89 1006.4
20260507084559 53 182 5.0 24.0 0.04 0.30 0.30 89 1006.6
20260507083056 53 185 6.0 20.0 0.07 0.30 0.30 89 1007.0
20260507081551 53 222 10.0 24.0 0.14 0.30 0.30 89 1007.2
20260507080056 53 210 10.0 21.0 0.16 0.29 0.29 89 1007.3
20260507074551 53 159 9.0 16.0 0.18 0.25 0.25 88 1007.3
20260507073100 53 195 8.0 23.0 0.18 0.22 0.22 88 1007.7
20260507071557 53 205 8.0 24.0 0.14 0.16 0.16 88 1007.9
20260507070103 53 157 8.0 17.0 0.12 0.12 0.12 87 1007.9
20260507064549 53 183 7.0 18.0 0.07 0.07 0.07 86 1008.2
20260507063053 53 161 6.0 15.0 0.03 0.03 0.03 85 1008.8
20260507061552 54 96 9.0 19.0 0.02 0.02 0.02 82 1009.0
20260507060103 54 155 6.0 17.0 0.00 0.00 0.00 81 1009.1
20260507054555 54 177 5.0 17.0 0.00 0.00 0.00 81 1009.5
20260507053054 54 181 9.0 19.0 0.00 0.00 0.00 81 1009.8
20260507051555 54 214 6.0 12.0 0.00 0.00 0.00 80 1009.9
20260507050053 54 121 4.0 15.0 0.00 0.00 0.00 80 1009.9
20260507044555 55 177 7.0 17.0 0.00 0.00 0.00 80 1011.0
20260507043059 54 176 6.0 14.0 0.00 0.00 0.00 80 1011.1
20260507041555 55 0 5.0 11.0 0.00 0.00 0.00 80 1011.6
20260507040103 55 152 5.0 15.0 0.00 0.00 0.00 80 1011.8
20260507034559 55 252 6.0 14.0 0.00 0.00 0.00 80 1012.2
20260507033055 55 195 5.0 11.0 0.00 0.00 0.00 80 1012.2
20260507031553 55 215 6.0 11.0 0.00 0.00 0.00 80 1012.2
20260507030055 56 163 7.0 14.0 0.00 0.00 0.00 79 1012.6
20260507024558 57 190 4.0 14.0 0.00 0.00 0.00 79 1012.9
20260507023054 57 175 5.0 16.0 0.00 0.00 0.00 79 1013.0
20260507021600 57 182 5.0 13.0 0.00 0.00 0.00 79 1013.4
20260507020058 57 342 6.0 18.0 0.00 0.00 0.00 79 1013.3
20260507014559 58 175 4.0 13.0 0.00 0.00 0.00 79 1013.5
20260507013053 58 200 5.0 13.0 0.00 0.00 0.00 79 1014.0
20260507011553 58 172 3.0 11.0 0.00 0.00 0.00 79 1014.4
20260507010111 58 121 5.0 10.0 0.00 0.00 0.00 79 1014.6
20260507004550 59 179 3.0 11.0 0.00 0.00 0.00 78 1014.6
20260507003053 59 223 5.0 13.0 0.00 0.00 0.00 78 1014.8
20260507001556 60 197 5.0 17.0 0.00 0.00 0.00 78 1014.8
20260507000056 60 200 5.0 13.0 0.00 0.00 0.00 77 1015.0
20260506234607 61 192 6.0 19.0 0.00 0.00 0.00 77 1014.9
20260506233059 61 200 5.0 15.0 0.00 0.00 0.00 76 1014.8
20260506231557 61 234 4.0 12.0 0.00 0.00 0.00 75 1014.8
20260506230054 62 207 5.0 14.0 0.00 0.00 0.00 75 1014.7
20260506224553 62 176 6.0 20.0 0.00 0.00 0.00 75 1014.7
20260506223059 62 200 7.0 19.0 0.00 0.00 0.00 75 1014.9
20260506221553 63 187 8.0 20.0 0.00 0.00 0.00 74 1015.0
20260506220056 63 186 11.0 26.0 0.00 0.00 0.00 74 1014.9
20260506214601 63 176 13.0 30.0 0.00 0.00 0.00 74 1015.1
20260506213056 64 176 12.0 23.0 0.00 0.00 0.00 73 1015.1